Location: Newark
(48.8833°N, 0.9236°W)
Time: 19:30:26
(UTC+00:00)

Tiros 1 despin weight - All Passes

Search period start: 17 November 2019 00:00
Search period end: 27 November 2019 00:00
Orbit: 594 x 642 km, 48.2° (Epoch: 17 November)

Date Brightness Start Highest point End Pass type
(mag) Time Alt. Az. Time Alt. Az. Time Alt. Az.
17 Nov - 13:43:18 10° SSW 13:46:55 25° SE 13:50:34 10° E daylight
17 Nov - 15:23:36 10° WSW 15:28:00 65° SSE 15:32:27 10° E daylight
17 Nov - 17:05:01 10° W 17:09:30 82° S 17:14:02 10° E visible
17 Nov - 18:46:34 10° W 18:50:52 46° SSW 18:55:14 10° SE visible
17 Nov - 20:29:11 10° WSW 20:31:41 15° SW 20:34:11 10° S visible
18 Nov - 12:21:36 10° SSE 12:22:36 11° SE 12:23:37 10° ESE daylight
18 Nov - 13:59:08 10° SW 14:03:14 38° SSE 14:07:23 10° E daylight
18 Nov - 15:40:05 10° WSW 15:44:32 79° S 15:49:02 10° E daylight
18 Nov - 17:21:35 10° W 17:26:03 72° SSW 17:30:34 10° ESE visible
18 Nov - 19:03:17 10° W 19:07:15 31° SSW 19:11:15 10° SSE visible
19 Nov - 12:35:38 10° S 12:38:45 19° SE 12:41:52 10° E daylight
19 Nov - 14:15:21 10° WSW 14:19:40 55° SSE 14:24:02 10° E daylight
19 Nov - 15:56:39 10° W 16:01:06 84° S 16:05:37 10° E daylight
19 Nov - 17:38:10 10° W 17:42:34 56° SSW 17:46:59 10° ESE visible
19 Nov - 19:20:16 10° W 19:23:31 20° SW 19:26:47 10° S visible
20 Nov - 12:51:09 10° SSW 12:55:00 30° SSE 12:58:53 10° E daylight
20 Nov - 14:31:45 10° WSW 14:36:10 72° SSE 14:40:37 10° E daylight
20 Nov - 16:13:13 10° W 16:17:40 79° S 16:22:11 10° ESE daylight
20 Nov - 17:54:49 10° W 17:58:59 39° SSW 18:03:12 10° SE visible
20 Nov - 19:38:19 10° WSW 19:39:41 11° SW 19:41:02 10° SSW visible
21 Nov - 11:28:21 10° S 11:30:36 14° SE 11:32:51 10° ESE daylight
21 Nov - 13:07:09 10° SW 13:11:22 45° SSE 13:15:36 10° E daylight
21 Nov - 14:48:17 10° W 14:52:43 82° S 14:57:12 10° E daylight
21 Nov - 16:29:48 10° W 16:34:13 65° SSW 16:38:41 10° ESE daylight
21 Nov - 18:11:37 10° W 18:15:19 25° SW 18:19:03 10° SSE visible
22 Nov - 11:43:18 10° SSW 11:46:47 23° SE 11:50:17 10° E daylight
22 Nov - 13:23:27 10° WSW 13:27:49 63° SSE 13:32:13 10° E daylight
22 Nov - 15:04:51 10° W 15:09:18 83° S 15:13:47 10° E daylight
22 Nov - 16:46:23 10° W 16:50:41 48° SSW 16:55:02 10° SE visible
22 Nov - 18:28:51 10° WSW 18:31:32 16° SW 18:34:13 10° S visible
23 Nov - 11:59:03 10° SW 12:03:05 36° SSE 12:07:09 10° E daylight
23 Nov - 13:39:56 10° WSW 13:44:21 77° S 13:48:48 10° E daylight
23 Nov - 15:21:26 10° W 15:25:52 74° S 15:30:19 10° ESE daylight
23 Nov - 17:03:05 10° W 17:07:05 33° SSW 17:11:06 10° SSE visible
24 Nov - 10:35:41 10° S 10:38:37 17° SE 10:41:32 10° E daylight
24 Nov - 12:15:12 10° SW 12:19:29 52° SSE 12:23:49 10° E daylight
24 Nov - 13:56:29 10° W 14:00:54 83° S 14:05:22 10° E daylight
24 Nov - 15:38:00 10° W 15:42:22 58° SSW 15:46:46 10° ESE daylight
24 Nov - 17:20:01 10° W 17:23:22 21° SW 17:26:43 10° SSE visible
25 Nov - 10:51:05 10° SSW 10:54:51 28° SSE 10:58:38 10° E daylight
25 Nov - 12:31:36 10° WSW 12:35:59 69° SSE 12:40:24 10° E daylight
25 Nov - 14:13:03 10° W 14:17:29 80° S 14:21:57 10° E daylight
25 Nov - 15:54:38 10° W 15:58:48 41° SSW 16:03:01 10° SE daylight
25 Nov - 17:37:46 10° WSW 17:39:31 12° SW 17:41:17 10° SSW visible
26 Nov - 09:28:33 10° SSE 09:30:29 13° SE 09:32:23 10° ESE daylight
26 Nov - 11:07:02 10° SW 11:11:11 42° SSE 11:15:23 10° E daylight
26 Nov - 12:48:06 10° W 12:52:32 81° S 12:56:59 10° E daylight
26 Nov - 14:29:37 10° W 14:34:01 68° SSW 14:38:27 10° ESE daylight
26 Nov - 16:11:24 10° W 16:15:09 27° SSW 16:18:55 10° SSE daylight
